When you browse on this site, cookies collect data to enhance your experience and personalize the content and advertising you see.
Visit our Privacy Policy to learn more. By continuing to use the site, you agree to this use of cookies and data.
  • In Austria
  • List of Countries
  • For 7 days
  • Water Temperature
  • Weather Map
  • News
  • Weather Widgets
  • user-avatar
    Login

    Hourly Weather Vattalkundu

    Today, 31 May, Sunday

    Time Temperature Precipitation Wind Pressure Humidity
    00:00 +30°C° 0.3 mm 1 mps 736 mmHg 76%
    01:00 +30°C° 0.3 mm 1 mps 735 mmHg 77%
    02:00 +30°C° 0.3 mm 1 mps 735 mmHg 78%
    03:00 +29°C° 0 mm 1 mps 735 mmHg 78%
    04:00 +29°C° 0 mm 1 mps 735 mmHg 79%
    05:00 +29°C° 0 mm 1 mps 736 mmHg 83%
    06:00 +30°C° 0 mm 1 mps 736 mmHg 79%
    07:00 +31°C° 0 mm 1 mps 736 mmHg 74%
    08:00 +32°C° 0 mm 1 mps 737 mmHg 70%
    09:00 +34°C° 0 mm 2 mps 737 mmHg 63%
    10:00 +36°C° 0 mm 2 mps 737 mmHg 57%
    11:00 +36°C° 0 mm 1 mps 737 mmHg 49%
    12:00 +38°C° 0.1 mm 2 mps 736 mmHg 46%
    13:00 +38°C° 0.1 mm 2 mps 735 mmHg 44%
    14:00 +39°C° 0.1 mm 2 mps 734 mmHg 42%
    15:00 +38°C° 0.5 mm 2 mps 734 mmHg 45%
    16:00 +37°C° 0.5 mm 3 mps 734 mmHg 49%
    17:00 +37°C° 0.5 mm 3 mps 734 mmHg 52%
    18:00 +35°C° 0.3 mm 3 mps 735 mmHg 57%
    19:00 +34°C° 0.3 mm 2 mps 735 mmHg 62%
    20:00 +32°C° 0.3 mm 2 mps 736 mmHg 67%
    21:00 +31°C° 0.1 mm 2 mps 736 mmHg 69%
    22:00 +30°C° 0.1 mm 2 mps 737 mmHg 71%
    23:00 +30°C° 0.1 mm 2 mps 737 mmHg 72%

    Tomorrow, 1 June, Monday

    Time Temperature Precipitation Wind Pressure Humidity
    00:00 +29°C° 0 mm 2 mps 736 mmHg 73%
    01:00 +29°C° 0 mm 1 mps 736 mmHg 74%
    02:00 +29°C° 0 mm 1 mps 735 mmHg 75%
    03:00 +29°C° 0 mm 1 mps 735 mmHg 75%
    04:00 +29°C° 0 mm 1 mps 736 mmHg 76%
    05:00 +28°C° 0 mm 1 mps 736 mmHg 76%
    06:00 +29°C° 0 mm 1 mps 736 mmHg 72%
    07:00 +30°C° 0 mm 1 mps 737 mmHg 68%
    08:00 +31°C° 0 mm 2 mps 737 mmHg 63%
    09:00 +34°C° 0 mm 2 mps 737 mmHg 58%
    10:00 +35°C° 0 mm 2 mps 737 mmHg 53%
    11:00 +37°C° 0 mm 2 mps 737 mmHg 48%
    12:00 +37°C° 0.2 mm 3 mps 737 mmHg 47%
    13:00 +37°C° 0.2 mm 3 mps 736 mmHg 46%
    14:00 +38°C° 0.2 mm 3 mps 735 mmHg 45%
    15:00 +37°C° 0.5 mm 3 mps 735 mmHg 48%
    16:00 +36°C° 0.5 mm 3 mps 735 mmHg 51%
    17:00 +35°C° 0.5 mm 3 mps 735 mmHg 54%
    18:00 +34°C° 0.2 mm 3 mps 735 mmHg 58%
    19:00 +32°C° 0.2 mm 2 mps 736 mmHg 62%
    20:00 +31°C° 0.2 mm 2 mps 736 mmHg 66%
    21:00 +31°C° 0 mm 2 mps 736 mmHg 67%
    22:00 +30°C° 0 mm 1 mps 736 mmHg 69%
    23:00 +30°C° 0 mm 1 mps 737 mmHg 70%

    Day after tomorrow, 2 June, Tuesday

    Time Temperature Precipitation Wind Pressure Humidity
    00:00 +29°C° 0 mm 1 mps 736 mmHg 71%
    01:00 +29°C° 0 mm 1 mps 736 mmHg 71%
    02:00 +28°C° 0 mm 1 mps 735 mmHg 72%
    03:00 +28°C° 0 mm 1 mps 735 mmHg 73%
    04:00 +28°C° 0 mm 1 mps 736 mmHg 74%
    05:00 +28°C° 0 mm 1 mps 736 mmHg 74%
    06:00 +29°C° 0 mm 1 mps 736 mmHg 70%
    07:00 +30°C° 0 mm 2 mps 737 mmHg 66%
    08:00 +31°C° 0 mm 2 mps 737 mmHg 61%
    09:00 +34°C° 0.1 mm 2 mps 737 mmHg 57%
    10:00 +35°C° 0.1 mm 3 mps 737 mmHg 53%
    11:00 +37°C° 0.1 mm 3 mps 737 mmHg 49%
    12:00 +37°C° 0.2 mm 3 mps 736 mmHg 48%
    13:00 +37°C° 0.2 mm 4 mps 736 mmHg 47%
    14:00 +37°C° 0.2 mm 4 mps 735 mmHg 46%
    15:00 +37°C° 0.4 mm 4 mps 735 mmHg 49%
    16:00 +36°C° 0.4 mm 4 mps 735 mmHg 52%
    17:00 +35°C° 0.4 mm 3 mps 735 mmHg 55%
    18:00 +34°C° 0.2 mm 3 mps 735 mmHg 59%
    19:00 +33°C° 0.2 mm 3 mps 736 mmHg 63%
    20:00 +31°C° 0.2 mm 3 mps 737 mmHg 67%
    21:00 +30°C° 0 mm 3 mps 737 mmHg 68%
    22:00 +29°C° 0 mm 3 mps 737 mmHg 69%
    23:00 +29°C° 0 mm 3 mps 737 mmHg 70%

    3 June, Wednesday

    Time Temperature Precipitation Wind Pressure Humidity
    00:00 +29°C° 0 mm 2 mps 736 mmHg 70%
    01:00 +28°C° 0 mm 2 mps 736 mmHg 71%
    02:00 +28°C° 0 mm 2 mps 735 mmHg 72%
    03:00 +28°C° 0 mm 1 mps 735 mmHg 73%
    04:00 +28°C° 0 mm 1 mps 735 mmHg 73%
    05:00 +28°C° 0 mm 1 mps 735 mmHg 74%
    06:00 +29°C° 0 mm 1 mps 736 mmHg 70%
    07:00 +30°C° 0 mm 2 mps 737 mmHg 66%
    08:00 +31°C° 0 mm 2 mps 737 mmHg 61%
    09:00 +34°C° 0.1 mm 2 mps 737 mmHg 57%
    10:00 +35°C° 0.1 mm 3 mps 737 mmHg 52%
    11:00 +37°C° 0.1 mm 3 mps 737 mmHg 47%
    12:00 +37°C° 0.5 mm 4 mps 736 mmHg 47%
    13:00 +37°C° 0.5 mm 4 mps 736 mmHg 47%
    14:00 +37°C° 0.5 mm 4 mps 735 mmHg 47%
    15:00 +36°C° 1 mm 4 mps 735 mmHg 52%
    16:00 +35°C° 1 mm 4 mps 735 mmHg 57%
    17:00 +33°C° 1 mm 4 mps 735 mmHg 62%
    18:00 +31°C° 0.5 mm 3 mps 735 mmHg 66%
    19:00 +30°C° 0.5 mm 3 mps 736 mmHg 69%
    20:00 +30°C° 0.5 mm 2 mps 737 mmHg 73%
    21:00 +29°C° 0.2 mm 1 mps 737 mmHg 73%
    22:00 +29°C° 0.2 mm 1 mps 737 mmHg 73%
    23:00 +29°C° 0.2 mm 1 mps 737 mmHg 72%

    4 June, Thursday

    Time Temperature Precipitation Wind Pressure Humidity
    00:00 +29°C° 0 mm 1 mps 736 mmHg 73%
    01:00 +28°C° 0 mm 1 mps 736 mmHg 73%
    02:00 +28°C° 0 mm 1 mps 735 mmHg 74%
    03:00 +27°C° 0 mm 1 mps 735 mmHg 75%
    04:00 +27°C° 0 mm 1 mps 735 mmHg 75%
    05:00 +27°C° 0 mm 1 mps 735 mmHg 76%
    06:00 +28°C° 0 mm 1 mps 736 mmHg 71%
    07:00 +29°C° 0 mm 1 mps 737 mmHg 66%
    08:00 +31°C° 0 mm 1 mps 737 mmHg 61%
    09:00 +32°C° 0 mm 2 mps 737 mmHg 56%
    10:00 +35°C° 0 mm 2 mps 737 mmHg 51%
    11:00 +37°C° 0 mm 2 mps 737 mmHg 45%
    12:00 +37°C° 0 mm 2 mps 736 mmHg 44%
    13:00 +38°C° 0 mm 2 mps 736 mmHg 43%
    14:00 +39°C° 0 mm 2 mps 735 mmHg 41%
    15:00 +38°C° 0.3 mm 2 mps 735 mmHg 45%
    16:00 +37°C° 0.3 mm 2 mps 735 mmHg 49%
    17:00 +36°C° 0.3 mm 3 mps 735 mmHg 52%
    18:00 +34°C° 0.6 mm 2 mps 735 mmHg 58%
    19:00 +32°C° 0.6 mm 2 mps 736 mmHg 63%
    20:00 +31°C° 0.6 mm 2 mps 736 mmHg 69%
    21:00 +30°C° 0.2 mm 2 mps 736 mmHg 70%
    22:00 +30°C° 0.2 mm 2 mps 737 mmHg 72%
    23:00 +29°C° 0.2 mm 2 mps 737 mmHg 74%

    5 June, Friday

    Time Temperature Precipitation Wind Pressure Humidity
    00:00 +29°C° 0.2 mm 2 mps 736 mmHg 74%
    01:00 +29°C° 0.2 mm 1 mps 736 mmHg 75%
    02:00 +28°C° 0.2 mm 1 mps 735 mmHg 76%
    03:00 +28°C° 0 mm 1 mps 735 mmHg 76%
    04:00 +28°C° 0 mm 1 mps 735 mmHg 76%
    05:00 +28°C° 0 mm 1 mps 735 mmHg 77%
    06:00 +29°C° 0 mm 1 mps 736 mmHg 72%
    07:00 +30°C° 0 mm 1 mps 737 mmHg 67%
    08:00 +31°C° 0 mm 1 mps 737 mmHg 62%
    09:00 +33°C° 0.1 mm 1 mps 737 mmHg 57%
    10:00 +35°C° 0.1 mm 2 mps 737 mmHg 53%
    11:00 +37°C° 0.1 mm 2 mps 737 mmHg 48%
    12:00 +37°C° 0.8 mm 2 mps 736 mmHg 47%
    13:00 +37°C° 0.8 mm 2 mps 735 mmHg 46%
    14:00 +37°C° 0.8 mm 2 mps 735 mmHg 46%
    15:00 +36°C° 0.9 mm 3 mps 735 mmHg 51%
    16:00 +35°C° 0.9 mm 3 mps 735 mmHg 56%
    17:00 +34°C° 0.9 mm 4 mps 734 mmHg 61%
    18:00 +33°C° 0.3 mm 3 mps 735 mmHg 63%
    19:00 +31°C° 0.3 mm 3 mps 735 mmHg 66%
    20:00 +30°C° 0.3 mm 2 mps 736 mmHg 69%
    21:00 +30°C° 0.5 mm 2 mps 736 mmHg 70%
    22:00 +30°C° 0.5 mm 2 mps 736 mmHg 71%
    23:00 +29°C° 0.5 mm 2 mps 736 mmHg 72%
    Show more